#timestamp,LO_Frequency,Hit 
1500217215.6,286044878.0,N
1500217235.4,286044880.2,N
1500217255.2,286044880.3,N
1500217275.1,286044880.1,N
1500217276.0,286044880.1,N
1500217295.8,286044880.4,N
1500217315.7,286044880.1,N
1500217335.5,286044880.1,N
1500217355.3,286044880.0,N
1500217375.2,286044880.2,N
1500217395.0,286044882.5,N
1500217395.9,286044882.5,N
1500217415.8,286044881.8,N
1500217435.6,286044881.7,N
1500217455.4,286044881.4,N
1500217475.3,286044881.4,N
1500217495.1,286044881.3,N
1500217515.8,286044881.6,N
1500217535.7,286044881.3,N
1500217555.5,286044881.9,N
1500217575.4,286044880.3,N
1500217595.2,286044882.5,N
1500217615.0,286044881.8,N
1500217615.9,286044881.8,N
1500217635.8,286044882.0,N
1500217655.6,286044879.6,N
1500217675.4,286044880.2,N
1500217695.3,286044881.5,N
1500217715.1,286044882.6,N
1500217735.9,286044882.0,N
1500217755.7,286044882.0,N
1500217775.5,286044879.8,N
1500217795.4,286044882.2,N
1500217815.2,286044882.3,N
1500217835.0,286044880.0,N
1500217835.9,286044880.0,N
1500217855.8,286044882.2,N
1500217875.6,286044881.2,N
1500217895.5,286044884.3,N
1500217915.3,286044884.2,N
1500217935.1,286044881.9,N
1500217955.9,286044881.5,N
1500217975.7,286044884.3,N
1500217995.5,286044883.4,N
1500218015.4,286044883.1,N
1500218035.2,286044883.9,N
1500218055.1,286044883.8,N
1500218056.0,286044883.8,N
1500218075.8,286044882.8,N
1500218095.6,286044885.9,N
1500218115.5,286044885.6,N
1500218135.3,286044882.9,N
1500218155.1,286044885.7,N
1500218175.9,286044882.1,N
1500218195.7,286044883.4,N
1500218215.6,286044885.8,N
1500218235.4,286044885.1,N
1500218255.2,286044885.2,N
1500218275.1,286044884.7,N
1500218276.0,286044884.7,N
1500218295.8,286044885.0,N
1500218315.6,286044885.2,N
1500218335.5,286044884.8,N
1500218355.3,286044886.8,N
1500218375.2,286044886.3,N
1500218395.9,286044887.1,N
1500218415.7,286044886.9,N
1500218435.6,286044886.8,N
1500218455.4,286044887.2,N
1500218475.3,286044887.0,N
1500218495.1,286044886.9,N
1500218496.0,286044886.9,N
1500218515.8,286044887.1,N
1500218535.7,286044884.8,N
1500218555.5,286044884.4,N
1500218575.3,286044887.2,N
1500218595.2,286044886.5,N
1500218615.0,286044886.3,N
1500218615.9,286044886.3,N
1500218635.8,286044886.3,N
1500218655.6,286044887.4,N
1500218675.4,286044884.9,N
1500218695.3,286044887.5,N
1500218715.1,286044884.6,N
1500218735.8,286044884.6,N
1500218755.7,286044885.6,N
1500218775.5,286044885.2,N
1500218795.3,286044885.2,N
1500218815.2,286044885.0,N
1500218835.0,286044885.7,N
1500218835.9,286044885.7,N
1500218855.8,286044884.9,N
1500218875.6,286044884.8,N
1500218895.4,286044884.6,N
1500218915.3,286044885.0,N
1500218935.1,286044887.4,N
1500218955.9,286044884.8,N
1500218975.7,286044887.1,N
1500218995.5,286044884.9,N
1500219015.4,286044887.4,N
1500219035.2,286044887.0,N
1500219055.0,286044889.1,N
1500219055.9,286044889.1,N
1500219075.8,286044886.5,N
1500219095.6,286044886.3,N
1500219115.5,286044886.6,N
1500219135.3,286044887.3,N
1500219155.1,286044887.5,N
1500219175.9,286044887.5,N
1500219195.7,286044884.8,N
1500219215.5,286044886.8,N
1500219235.4,286044887.5,N
1500219255.2,286044885.2,N
1500219275.0,286044886.9,N
1500219276.0,286044886.9,N
1500219295.8,286044887.2,N
1500219315.6,286044886.7,N
1500219335.5,286044886.2,N
1500219355.3,286044889.1,N
1500219375.1,286044886.3,N
1500219395.9,286044886.6,N
1500219415.7,286044886.6,N
1500219435.6,286044886.7,N
1500219455.4,286044886.2,N
1500219475.2,286044889.1,N
1500219495.1,286044888.6,N
1500219496.0,286044888.6,N
1500219515.8,286044886.0,N
1500219535.6,286044886.2,N
1500219555.5,286044889.0,N
1500219575.3,286044888.7,N
1500219595.2,286044888.1,N
1500219615.9,286044887.6,N
1500219635.7,286044888.0,N
1500219655.6,286044887.8,N
1500219675.4,286044888.1,N
1500219695.2,286044888.3,N
1500219715.1,286044888.5,N
1500219716.0,286044888.5,N
1500219735.8,286044888.5,N
1500219755.7,286044888.2,N
1500219775.5,286044890.1,N
1500219795.3,286044889.7,N
1500219815.2,286044892.1,N
1500219835.0,286044889.9,N
1500219835.9,286044889.9,N
1500219855.8,286044889.2,N
1500219875.6,286044889.3,N
1500219895.4,286044889.3,N
1500219915.3,286044890.9,N
1500219935.1,286044891.7,N
1500219955.8,286044888.0,N
1500219975.7,286044889.6,N
1500219995.5,286044889.3,N
1500220015.4,286044892.1,N
1500220035.2,286044891.4,N
1500220055.0,286044891.3,N
1500220055.9,286044891.3,N
1500220075.8,286044891.7,N
1500220095.6,286044889.4,N
1500220115.4,286044892.1,N
1500220135.3,286044891.3,N
1500220155.1,286044891.5,N
1500220175.9,286044891.5,N
1500220195.7,286044891.4,N
1500220215.5,286044891.3,N
1500220235.4,286044890.8,N
1500220255.2,286044893.5,N
1500220275.0,286044893.1,N
1500220275.9,286044893.1,N
1500220295.8,286044890.8,N
1500220315.6,286044891.0,N
1500220335.5,286044890.8,N
1500220355.3,286044892.8,N
1500220375.1,286044892.5,N
1500220395.9,286044893.4,N
1500220415.7,286044892.7,N
1500220435.5,286044892.6,N
1500220455.4,286044892.4,N
1500220475.2,286044893.3,N
1500220495.1,286044892.4,N
1500220496.0,286044892.4,N
1500220515.8,286044895.4,N
1500220535.6,286044895.3,N
1500220555.5,286044894.6,N
1500220575.3,286044894.3,N
1500220595.1,286044894.7,N
1500220615.9,286044894.0,N
1500220635.7,286044894.3,N
1500220655.6,286044894.8,N
1500220675.4,286044894.2,N
1500220695.2,286044894.1,N
1500220715.1,286044895.3,N
1500220716.0,286044895.3,N
1500220735.8,286044895.3,N
1500220755.6,286044895.2,N
1500220775.5,286044895.2,N
1500220795.3,286044894.0,N
